Weather History for KLOL - April, 2014

Change the Weather History Date:

Tuesday, April 1, 2014

  Actual Average Record
Temperature  
Mean Temperature 36 °F -  
Max Temperature 46 °F 58 °F 84 °F (1966)
Min Temperature 26 °F 29 °F 8 °F (1970)
Degree Days  
Heating Degree Days 30    
Moisture  
Dew Point 26 °F    
Average Humidity 66    
Maximum Humidity 100    
Minimum Humidity 39    
Precipitation  
Precipitation 0.00 in - - ()
Sea Level Pressure  
Sea Level Pressure 29.80 in    
Wind  
Wind Speed 9 mph (South)    
Max Wind Speed 15 mph    
Max Gust Speed 23 mph    
Visibility 10 miles    
Events Rain , Snow    
Averages and records for this station are not official NWS values.
T = Trace of Precipitation, MM = Missing Value Source: NWS Daily Summary

Daily Weather History Graph

Daily Weather History Graph

Search for Another Location

Airport or City:

Trip Planner

Search our weather history database for the weather conditions in past years. The results will help you decide how hot, cold, wet, or windy it might be!

Date:

Astronomy

Apr. 01, 2014 Rise Set
Actual Time 6:38 AM PDT 7:18 PM PDT
Civil Twilight 6:10 AM PDT 7:46 PM PDT
Nautical Twilight 5:38 AM PDT 8:18 PM PDT
Astronomical Twilight 5:05 AM PDT 8:51 PM PDT
Moon 7:44 AM PDT (4/1) 9:46 PM PDT (4/1)
Length of Visible Light 13h 35m
Length of Day
12h 40m
Waxing Crescent, 5% of the Moon is Illuminated
Apr 1
Waxing Crescent
Apr 7
First Quarter
Apr 15
Full
Apr 22
Last Quarter
Apr 28
New

Hourly Weather History & Observations

Time (PDT) Temp. Windchill Dew Point Humidity Pressure Visibility Wind Dir Wind Speed Gust Speed Precip Events Conditions
12:53 AM 37.9 °F 30.5 °F - N/A% 29.68 in 10.0 mi WSW 11.5 mph - N/A   Mostly Cloudy
1:53 AM 37.0 °F 28.1 °F 37.0 °F 100% 29.70 in 10.0 mi WSW 15.0 mph - N/A   Partly Cloudy
2:53 AM 34.0 °F 24.6 °F 25.0 °F 70% 29.73 in 10.0 mi SW 13.8 mph - N/A   Clear
3:53 AM 30.0 °F 21.7 °F 23.0 °F 75% 29.75 in 10.0 mi SW 9.2 mph - N/A   Clear
4:53 AM 27.0 °F 18.7 °F 19.9 °F 75% 29.76 in 10.0 mi SSW 8.1 mph - N/A   Clear
5:53 AM 26.1 °F 16.8 °F 18.0 °F 71% 29.78 in 10.0 mi WSW 9.2 mph - N/A   Clear
6:53 AM 27.0 °F 20.5 °F 18.0 °F 69% 29.81 in 10.0 mi SW 5.8 mph - N/A   Clear
7:53 AM 32.0 °F 27.5 °F 21.9 °F 66% 29.82 in 10.0 mi SSW 4.6 mph - N/A   Partly Cloudy
8:53 AM 37.9 °F 35.5 °F 24.1 °F 57% 29.82 in 10.0 mi East 3.5 mph - N/A   Scattered Clouds
9:53 AM 39.0 °F - 24.1 °F 55% 29.83 in 10.0 mi Calm Calm - N/A   Overcast
10:53 AM 42.1 °F 37.1 °F 24.1 °F 49% 29.83 in 10.0 mi South 8.1 mph - N/A   Mostly Cloudy
11:53 AM 44.1 °F 38.6 °F 21.0 °F 40% 29.83 in 10.0 mi SSW 10.4 mph - N/A   Overcast
12:53 PM 45.0 °F 41.2 °F 21.0 °F 39% 29.81 in 10.0 mi SSW 6.9 mph - N/A   Overcast
1:53 PM 45.0 °F 43.5 °F 24.1 °F 44% 29.80 in 10.0 mi North 3.5 mph - 0.00 in   Partly Cloudy
2:53 PM 44.1 °F 37.4 °F 27.0 °F 51% 29.81 in 10.0 mi NW 13.8 mph 23.0 mph 0.00 in Rain Light Rain
3:53 PM 37.0 °F 31.6 °F 32.0 °F 82% 29.84 in 5.0 mi South 6.9 mph - 0.00 in Snow Light Snow
4:53 PM 44.1 °F 40.1 °F 30.0 °F 58% 29.80 in 10.0 mi East 6.9 mph - 0.00 in   Clear
5:53 PM 43.0 °F 40.3 °F 28.0 °F 56% 29.79 in 10.0 mi ESE 4.6 mph - N/A   Clear
6:53 PM 42.1 °F 38.4 °F 26.1 °F 53% 29.79 in 10.0 mi SSE 5.8 mph - N/A   Partly Cloudy
7:53 PM 39.9 °F 35.8 °F 28.0 °F 63% 29.79 in 10.0 mi SE 5.8 mph - 0.00 in   Mostly Cloudy
8:53 PM 39.9 °F 32.9 °F 28.9 °F 65% 29.81 in 10.0 mi NE 11.5 mph - 0.00 in   Mostly Cloudy
9:12 PM 37.9 °F 31.5 °F 30.9 °F 76% 29.80 in 10.0 mi ENE 9.2 mph - N/A   Overcast
9:29 PM 35.1 °F 27.4 °F 30.9 °F 85% 29.81 in 10.0 mi East 10.4 mph - N/A   Overcast
9:53 PM 34.0 °F 26.6 °F 30.9 °F 89% 29.84 in 10.0 mi ENE 9.2 mph - N/A   Overcast
10:53 PM 34.0 °F 27.2 °F 30.0 °F 85% 29.84 in 10.0 mi NNE 8.1 mph - N/A   Mostly Cloudy
11:53 PM 33.1 °F - 28.9 °F 85% 29.84 in 10.0 mi Calm Calm - N/A   Mostly Cloudy